Location: Nelson
(41.2830°S, 173.2830°E)
Time: 18:03:00
(UTC+12:00)

Envisat - Pass Details

Date: 14 May 2021
Orbit: 764 x 766 km, 98.1° (Epoch: 19 June)

Event Time Altitude Azimuth Distance (km) Brightness Sun altitude
Rises 18:11:53 0° 170° (S) 3,271 6.0 -10.1°
Reaches altitude 10° 18:14:13 10° 172° (S) 2,338 5.3 -10.6°
Maximum altitude 18:19:20 70° 254° (WSW) 826 3.4 -11.5°
Drops below altitude 10° 18:24:24 10° 337° (NNW) 2,309 6.0 -12.4°
Sets 18:26:42 0° 339° (NNW) 3,227 6.8 -12.8°
